Regional Weather Roundup
Issued by NWS

Home | Current Version | Previous Version | Graphics & Text | Print | Product List | Glossary On
Versions: 1 2 3 4 5 6 7 8 9 10 11 12 13 14 15 16 17 18 19 20 21 22 23 24 25 26 27 28 29 30 31 32 33 34 35 36 37 38 39 40 41 42 43 44 45 46 47 48 49 50
000
ASUS43 KOAX 290902
RWRNE

WEATHER ROUNDUP FOR NEBRASKA
NATIONAL WEATHER SERVICE OMAHA NE
400 AM CDT SAT AUG 29 2015

NOTES: SATELLITE DATA IS BEING USED TO AUGMENT CLOUD COVER ABOVE
       12000 FEET.
       "FAIR" INDICATES FEW OR NO CLOUDS BELOW 12,000 FEET WITH NO
       SIGNIFICANT WEATHER AND/OR OBSTRUCTIONS TO VISIBILITY.

  * THESE STATIONS DO NOT REPORT WEATHER SUCH AS RAIN...SNOW OR FOG.

NEZ001>004-019>022-054>056-291000-
NEBRASKA PANHANDLE

CITY           SKY/WX    TMP DP  RH WIND       PRES   REMARKS
SCOTTSBLUFF    CLEAR     56  50  80 N3        30.17F
ALLIANCE       CLEAR     50  46  86 W3        30.15S
CHADRON        CLEAR     53  48  83 W3        30.10S HAZE
KIMBALL        CLEAR     54  43  67 W7        30.22S
SIDNEY         CLEAR     52  45  77 SW8       30.20S
$$

NEZ057>060-069>072-079>082-291000-
SOUTHWEST NEBRASKA

CITY           SKY/WX    TMP DP  RH WIND       PRES   REMARKS
NORTH PLATTE   MOCLDY    52  51  97 W3        30.11S
IMPERIAL       CLEAR     60  57  89 W6        30.15S
MCCOOK         CLEAR     57  56  96 W5        30.11S
$$

NEZ005>010-023>029-035>040-094-291000-
NORTH CENTRAL NEBRASKA

CITY           SKY/WX    TMP DP  RH WIND       PRES   REMARKS
VALENTINE      CLEAR     57  56  96 SW5       30.06F FOG
AINSWORTH      CLEAR     58  58  97 SW5       30.08S
BROKEN BOW     CLEAR     56  54  93 CALM      30.08R
O`NEILL        FOG       58  57  99 CALM      30.06R VSB 1/2
ORD            FOG       54  54 100 CALM      30.05S VSB 3/4
$$

NEZ041-046>049-061>064-073>077-083>087-291000-
SOUTH CENTRAL NEBRASKA

CITY           SKY/WX    TMP DP  RH WIND       PRES   REMARKS
GRAND ISLAND   FOG       56  56 100 CALM      30.06R VSB 1/2
AURORA         PTCLDY    58  58 100 N6        30.05R
HASTINGS       FOG       56  56 100 NW5       30.05S VSB 3/4
KEARNEY *      CLEAR     61  55  82 W5        30.07R
YORK           CLOUDY    59  59 100 N10       30.04R
$$

NEZ011>018-030>034-042>045-291000-
NORTHEAST NEBRASKA

CITY           SKY/WX    TMP DP  RH WIND       PRES   REMARKS
NORFOLK        CLOUDY    59  58  96 NE7       30.03S
ALBION         CLOUDY    56  54  95 CALM      30.05R FOG
BLAIR          CLOUDY    60  58  94 N13       30.00R FOG
COLUMBUS *     CLOUDY   N/A N/A N/A N3        30.04R
FREMONT        CLOUDY    62  59  91 N8        30.02R
TEKAMAH        CLOUDY    62  60  93 N10       30.01R
$$

NEZ050>053-065>068-078-088>093-291000-
SOUTHEAST NEBRASKA

CITY           SKY/WX    TMP DP  RH WIND       PRES   REMARKS
LINCOLN        CLOUDY    63  60  90 N10       30.01R
OMAHA EPPLEY   CLOUDY    63  61  93 N9        29.99R
BEATRICE       CLOUDY    63  61  92 N5        30.00S
FALLS CITY     CLOUDY    65  64  97 NW6       29.96R
NEBRASKA CITY  CLOUDY    63  63  99 N8        29.98R FOG
PLATTSMOUTH    CLOUDY    62  61  96 CALM      29.98S FOG
$$

NEZ044-045-051>053-067-291000-
OMAHA AREA

CITY           SKY/WX    TMP DP  RH WIND       PRES   REMARKS
OMAHA EPPLEY   CLOUDY    63  61  93 N9        29.99R
BLAIR          CLOUDY    60  58  94 N13       30.00R FOG
FREMONT        CLOUDY    62  59  91 N8        30.02R
PLATTSMOUTH    CLOUDY    62  61  96 CALM      29.98S FOG
WAHOO          CLOUDY    62  60  95 N8        30.01R
$$



USA.gov is the U.S. government's official web portal to all federal, state and local government web resources and services.